Location: Unspecified
(0.0000°N, 0.0000°E)
Time: 07:47:32
(UTC+00:00)

Vanguard 1 Rocket - Pass Details

Date: 01 December 2022
Orbit: 651 x 4224 km, 34.3° (Epoch: 04 February)

Event Time Altitude Azimuth Distance (km) Brightness Sun altitude
Rises 21:24:09 0° 224° (SW) 8,151 12.9 -48.4°
Reaches altitude 10° 21:32:06 10° 213° (SSW) 6,655 12.2 -50.1°
Maximum altitude 21:47:14 26° 164° (SSE) 4,051 10.6 -53.1°
Enters shadow 21:49:04 26° 153° (SSE) 3,891 10.5 -53.4°
